Retour au catalogue

KUIPER-00154

ActifCommunicationsLEO
NORAD 65969·PAYLOAD·🇺🇸 United States

Lancé Oct 14, 2025 depuis Cape Canaveral Space Force Station

Loading…

Prochains Passages (prochaines 24 heures)

TLE

FraisSource: CelesTrak SupGP

Époque: Sep 14, 2026, 14:04 UTC

1 65969C 25228Y   26257.58623843  .00001204  00000+0  15763-3 0  2573
2 65969  51.8988 220.3017 0000849  72.9742 196.3240 14.79920299    11

Suivez KUIPER-00154 en temps réel avec AllMySat

Download on the App Store